SCP
0 0 0 0 0 0 0 0 0 0 0 0 0 0 0 0 0 0 0 0 0 0 0 0 0 0 0 0 0 0 0 0 0 0 0 0 0 0 0 0 0 0 0
0 0 0 0 0 0 0 0 0 0 0 0 0 0 0 0 0 0 0 0 0 0 0 0 0 0 0 0 0 0 0 0 0 0 0 0 0 0 0 0 0 0 0
0 0 0 0 0 0 0 0 0 0 0 0 0 0 0 0 0 0 0 0 0 0 0 0 0 0 0 0 0 0 0 0 0 0 0 0 0 0 0 0 0 0 0
0 0 0 0 0 0 0 0 0 0 0 0 0 0 0 0 0 0 0 0 0 0 0 0 0 0 0 0 0 0 0 0 0 0 0 0 0 0 0 0 0 0 0
0 0 0 0 0 0 0 0 0 0 0 0 0 0 0 0 0 0 0 0 0 0 0 0 0 0 0 0 0 0 0 0 0 0 0 0 0 0 0 0 0 0 0
0 0 0 0 0 0 0 0 0 0 0 0 0 0 0 0 0 0 0 0 0 0 0 0 0 0 0 0 0 0 0 0 0 0 0 0 0 0 0 0 0 0 0
0 0 0 0 0 0 0 0 0 0 0 0 0 0 0 0 0 0 0 0 0 0 0 0 0 0 0 0 0 0 0 0 0 0 0 0 0 0 0 0 0 0 0
0 0 0 0 0 0 0 0 0 0 0 0 0 0 0 0 0 0 0 0 0 0 0 0 0 0 0 0 0 0 0 0 0 0 0 0 0 0 0 0 0 0 0
0 0 0 0 0 0 0 0 0 0 0 0 0 0 0 0 0 0 0 0 0 0 0 0 0 0 0 0 0 0 0 0 0 0 0 0 0 0 0 0 0 0 0
0 0 0 0 0 0 0 0 0 0 0 0 0 0 0 0 0 0 0 0 0 0 0 0 0 0 0 0 0 0 0 0 0 0 0 0 0 0 0 0 0 0 0
0 0 0 0 0 0 0 0 0 0 0 0 0 0 0 0 0 0 0 0 0 0 0 0 0 0 0 0 0 0 0 0 0 0 0 0 0 0 0 0 0 0 0
0 0 0 0 0 0 0 0 0 0 0 0 0 0 0 0 0 0 0 0 0 0 0 0 0 0 0 0 0 0 0 0 0 0 0 0 0 0 0 0 0 0 0
0 0 0 0 0 0 0 0 0 0 0 0 0 0 0 0 0 -0 -0 -0 0 0 0 0 0 0 0 0 0 0 0 0 0 0 0 0 0 0 0 0 0 0 0
0 0 0 0 0 0 0 0 0 0 0 0 0 0 0 0 -0 -0 0 0 0 0 0 0 0 0 0 0 0 0 0 0 0 0 0 0 0 0 0 0 0 0 0
0 0 0 0 0 0 0 0 0 0 0 0 0 0 0 0 -0 -0 0 0 0 0 0 0 0 0 0 0 0 0 0 0 0 0 0 0 0 0 0 0 0 0 0
0 0 0 0 0 0 0 0 0 0 0 0 0 0 0 0 0 0 0 0 0 0 0 0 0 0 0 0 0 0 0 0 0 0 0 0 0 0 0 0 0 0 0
0 0 0 0 0 0 0 0 0 0 0 0 0 0 0 0 -0 -0 0 0 0 0 0 0 0 0 0 0 0 0 0 0 0 0 0 0 0 0 0 0 0 0 0
0 0 0 0 0 0 0 0 0 0 0 0 0 0 0 0 -0 0 0 0 0 0 0 0 0 0 0 0 0 0 0 0 0 0 0 0 0 0 0 0 0 0 0
0 0 0 0 0 0 0 0 0 0 0 0 0 0 0 0 -0 0 0 0 0 0 0 0 0 0 0 0 0 0 0 0 0 0 0 0 0 0 0 0 0 0 0
0 0 0 0 0 0 0 0 0 0 0 0 0 0 0 0 0 0 0 0 0 0 0 0 0 0 0 0 0 0 0 0 0 0 0 0 0 0 0 0 0 0 0
0 0 0 0 0 0 0 0 0 0 0 0 0 0 0 0 0 0 0 0 0 0 0 0 0 0 0 0 0 0 0 0 0 0 0 0 0 0 0 0 0 0 0
0 0 0 0 0 0 0 0 0 0 0 0 0 0 0 0 0 0 0 0 0 0 0 0 0 0 0 0 0 0 0 0 0 0 0 0 0 0 0 0 0 0 0
0 0 0 0 0 0 0 0 0 0 0 0 0 0 0 0 0 0 0 0 0 0 0 0 0 0 0 0 0 0 0 0 0 0 0 0 0 0 0 0 0 0 0
0 0 0 0 0 0 0 0 0 0 0 0 0 0 0 0 0 0 0 0 0 0 0 0 0 0 0 0 0 0 0 0 0 0 0 0 0 0 0 0 0 0 0
0 0 0 0 0 0 0 0 0 0 0 0 0 0 0 0 0 0 0 0 0 0 0 0 0 0 0 0 0 0 0 0 0 0 0 0 0 0 0 0 0 0 0
0 0 0 0 0 0 0 0 0 0 0 0 0 0 0 0 0 0 0 0 0 0 0 0 0 0 0 0 0 0 0 0 0 0 0 0 0 0 0 0 0 0 0
Wind_Speed
8 7 6 7 8 7 7 6 6 4 3 3 3 2 2 2 2 2 3 3 3 3 3 2 2 2 2 2 1 1 1 1 0 0 2 3 3 4 4 4 5 6 8
7 7 6 6 6 7 6 6 5 4 3 2 1 1 1 2 2 2 3 3 2 2 2 2 2 2 2 3 3 2 1 1 1 1 0 2 3 2 3 3 4 6 5
11 9 8 6 7 7 6 6 5 4 4 4 3 3 4 3 3 3 3 3 3 2 2 2 2 2 2 2 2 2 2 1 1 0 2 1 2 3 2 2 2 3 4
9 8 8 7 7 7 6 6 5 5 4 4 5 5 3 2 2 2 2 3 4 3 2 2 2 2 2 2 1 2 1 1 1 2 0 1 2 1 3 3 1 2 3
10 10 9 9 8 7 7 6 5 4 4 4 5 4 3 1 1 2 4 4 4 4 3 3 2 2 1 1 1 1 1 0 1 0 1 1 1 1 1 3 3 2 2
10 9 7 8 7 7 7 6 6 4 4 4 4 4 4 3 3 3 3 3 3 3 4 3 2 1 1 1 1 1 1 1 1 1 1 1 1 1 1 2 2 3 3
11 10 9 8 8 9 7 6 6 4 3 4 3 3 3 3 3 1 1 2 2 2 3 2 2 1 1 1 1 1 2 1 1 2 2 2 3 2 2 2 2 2 3
10 10 10 10 10 10 8 7 6 5 4 4 3 2 2 2 1 1 0 0 0 1 1 1 2 2 2 2 1 1 2 1 2 3 2 2 2 2 3 3 2 2 2
11 10 10 9 9 10 9 8 7 5 4 4 3 2 2 2 1 1 0 0 1 1 1 2 2 3 3 2 2 1 2 2 2 3 3 2 2 2 3 3 3 3 2
10 10 9 9 8 8 7 7 7 6 5 4 3 3 2 2 1 1 0 1 1 1 2 2 3 3 3 3 2 2 3 3 3 3 3 3 3 3 2 2 3 3 4
11 10 8 7 7 7 7 6 6 5 4 3 3 2 2 1 1 1 1 1 1 2 2 2 3 3 3 3 2 3 3 3 4 3 3 4 4 3 3 2 2 2 3
10 9 9 8 7 7 6 6 6 5 4 4 3 3 2 2 1 1 1 1 2 2 2 2 2 3 3 3 3 3 3 3 4 4 4 5 4 4 3 3 3 3 4
10 8 8 8 8 7 7 6 6 5 4 4 4 3 2 2 1 2 2 2 2 2 3 2 3 3 3 3 2 2 3 3 4 4 4 5 4 4 4 4 4 4 4
11 10 8 8 8 7 7 7 6 5 5 4 4 3 3 2 2 2 2 2 2 2 3 3 3 4 3 3 2 2 2 3 4 4 4 5 5 6 5 5 5 4 3
11 11 10 8 7 7 6 6 6 5 5 5 4 3 3 2 2 2 2 3 3 3 3 3 4 3 3 3 3 3 3 4 5 5 5 6 8 9 7 5 5 4 3
12 12 11 10 9 9 8 7 6 5 5 5 4 3 3 2 2 2 2 2 3 3 3 3 4 4 4 5 6 5 4 4 5 6 6 7 8 9 9 10 9 8 6
12 12 11 11 10 9 8 8 7 5 5 5 4 3 3 2 2 2 2 3 3 3 3 4 4 5 6 8 8 8 5 5 5 6 6 6 6 6 4 6 8 8 11
12 12 10 9 8 8 7 7 6 5 5 4 4 3 3 3 2 2 3 3 3 3 3 4 4 4 6 8 8 8 4 4 6 6 6 6 6 6 5 5 5 5 6
11 10 10 9 8 8 8 7 5 5 4 4 4 4 4 3 3 3 4 4 3 3 4 4 4 5 6 8 8 6 3 4 6 6 5 5 5 8 7 5 5 6 6
9 9 8 7 8 8 8 7 6 5 5 5 5 4 4 3 4 5 4 3 3 4 4 5 5 5 6 7 8 6 2 4 5 5 5 7 7 8 7 4 4 6 6
8 9 9 8 8 8 8 7 6 6 6 5 4 4 4 4 4 4 3 3 3 4 4 5 5 5 6 6 7 6 3 4 4 4 4 5 8 9 8 5 5 8 6
8 9 9 7 7 8 8 7 6 6 5 5 4 4 4 4 3 3 4 3 3 3 4 4 5 4 4 4 6 6 6 5 4 5 4 5 9 9 9 6 7 10 7
8 7 8 8 6 7 8 8 7 5 5 4 4 4 4 4 3 3 4 3 3 3 3 3 4 4 4 4 6 6 6 6 4 5 8 9 10 9 7 9 10 7 4
7 7 8 8 6 6 7 7 6 6 5 5 4 3 3 4 4 3 3 3 4 4 4 4 4 4 4 4 3 3 3 4 4 4 7 9 9 7 8 8 6 4 4
6 7 8 8 8 7 7 6 6 6 5 5 4 4 4 4 4 4 4 5 6 6 6 5 5 4 5 6 7 4 3 3 3 3 3 3 3 4 4 3 4 3 3
6 7 7 7 7 7 7 6 6 7 6 4 4 4 3 3 3 4 5 7 8 11 12 11 8 7 9 9 8 8 8 7 4 2 3 3 4 4 4 4 4 3 4
Wind_Direction
162 155 145 134 118 106 99 92 86 68 60 51 47 43 28 20 36 54 79 78 74 79 83 68 52 53 53 17 11 7 341 309 309 5 316 296 252 231 225 219 214 215 214
159 162 153 141 130 124 114 105 95 79 64 62 68 80 68 51 53 35 36 42 56 67 95 92 78 64 56 33 26 37 40 334 19 122 37 329 330 296 238 221 217 221 218
168 167 160 149 139 133 131 122 115 100 82 72 59 49 43 30 22 14 1 353 12 30 61 89 88 69 68 44 27 52 77 13 330 123 144 147 266 304 308 253 233 229 224
166 163 160 154 150 148 138 129 123 109 96 84 78 78 78 57 354 331 340 347 3 15 55 77 81 74 70 54 18 57 62 83 1 343 12 195 197 238 312 321 303 259 236
169 164 163 162 155 149 140 133 124 112 103 95 99 94 83 65 358 10 15 9 7 20 51 77 74 70 64 53 30 26 31 120 181 244 306 331 308 204 201 293 317 321 284
164 160 159 150 147 145 142 138 130 124 118 109 106 105 96 68 47 35 25 11 7 13 22 50 54 53 41 354 319 321 309 257 234 226 206 192 211 235 203 245 282 289 284
161 161 158 155 154 153 152 150 144 141 136 124 118 118 115 102 100 93 38 19 4 356 353 21 15 358 333 310 322 334 309 282 265 250 237 217 214 208 198 212 257 277 286
166 166 166 163 163 162 161 159 152 150 148 137 140 134 130 127 142 148 125 27 258 265 305 355 344 327 321 325 332 312 291 282 280 275 260 242 239 217 204 199 205 275 294
168 168 166 165 164 164 168 164 157 155 157 152 146 136 139 149 172 206 165 221 263 263 322 330 327 321 314 307 308 287 286 289 276 271 266 255 252 237 223 207 191 191 247
166 166 166 166 165 165 163 159 158 161 165 161 158 150 157 169 177 165 275 265 281 306 318 318 315 309 305 300 291 282 280 283 280 265 264 264 259 258 244 224 211 194 198
166 165 162 160 154 149 150 154 158 156 157 160 154 139 161 171 149 165 238 246 264 279 287 293 298 298 299 301 290 279 281 281 284 285 273 270 263 256 256 243 225 216 198
162 158 153 146 143 148 153 154 158 158 163 162 149 149 154 144 150 220 256 250 265 278 279 283 288 288 289 290 281 282 291 280 280 280 279 276 274 261 253 244 238 231 217
151 148 147 150 153 155 154 154 157 157 154 148 144 148 160 173 204 233 248 252 264 281 286 278 281 283 283 279 273 268 279 277 272 271 267 268 267 264 255 246 243 240 241
155 154 157 161 163 159 157 154 157 158 152 145 151 167 190 203 217 229 239 251 257 267 274 273 275 278 276 265 269 272 278 281 281 275 267 263 254 249 249 248 242 238 239
163 164 166 169 166 160 159 156 159 162 157 154 167 192 207 207 214 236 251 258 265 269 266 273 280 279 263 244 239 255 264 272 281 283 276 270 266 257 246 245 234 228 228
174 173 170 168 169 167 164 161 166 172 164 165 184 199 200 209 227 244 250 262 272 277 276 270 269 274 268 256 251 245 255 264 270 279 282 281 275 270 269 261 249 227 222
175 175 174 174 174 172 166 169 175 174 167 179 193 198 200 209 234 241 245 262 265 267 273 273 268 267 269 270 269 261 249 255 262 267 274 282 281 276 269 274 276 258 246
174 175 173 172 172 168 166 167 166 166 174 188 200 204 197 208 231 243 255 259 256 259 262 270 272 268 270 273 274 272 258 260 266 266 261 264 274 273 262 260 266 262 259
171 171 171 167 165 167 166 158 164 169 177 192 201 202 198 207 231 249 257 255 255 264 262 264 267 266 273 276 272 264 257 267 276 276 274 269 270 273 270 258 259 268 271
157 158 157 153 160 171 161 156 170 176 192 201 201 204 203 212 234 246 249 246 247 256 268 272 265 258 264 272 270 260 238 264 278 286 282 276 274 277 273 248 247 257 261
152 151 150 156 169 168 158 163 176 195 204 196 193 204 215 226 237 244 246 251 257 270 278 281 281 271 259 268 275 263 227 244 267 278 282 280 287 284 275 257 240 246 253
147 150 153 163 169 164 158 171 195 206 195 185 193 218 232 242 242 245 261 262 257 266 279 286 294 286 270 265 276 271 251 244 244 262 270 275 286 285 279 270 255 258 263
156 154 157 164 175 175 168 182 207 197 183 184 207 230 241 248 251 249 258 266 255 245 261 267 275 282 276 274 276 277 277 268 250 261 276 284 285 286 281 268 264 261 248
161 156 156 166 185 192 188 192 194 181 177 194 220 234 239 259 269 262 244 241 245 245 250 253 259 269 272 266 271 278 285 286 279 286 293 295 289 279 271 275 270 246 231
164 161 167 178 191 191 195 197 187 176 184 204 221 233 238 249 264 264 246 237 236 226 224 234 233 239 259 251 233 236 256 263 268 296 298 298 303 300 291 281 269 255 243
166 166 173 180 188 187 197 201 190 181 185 208 226 232 239 250 256 267 283 267 257 260 248 240 233 236 240 251 247 246 253 263 261 253 272 281 280 279 279 279 277 262 250